Iwojima, Japan

11:47 AM JST on August 20, 2017 (GMT +0900)
Iwojima Aero

Weather History for RJAW - March, 2013

Change the Weather History Date:

Thursday, March 21, 2013

  Actual Average Record
Temperature  
Mean Temperature 76 °F -  
Max Temperature 78 °F 73 °F 78 °F (2001)
Min Temperature 73 °F 67 °F 59 °F (2003)
Cooling Degree Days 10    
Growing Degree Days 26 (Base 50)    
Moisture  
Dew Point 69 °F    
Average Humidity 78    
Maximum Humidity 88    
Minimum Humidity 65    
Precipitation  
Precipitation 0.00 in - - ()
Sea Level Pressure  
Sea Level Pressure 29.95 in    
Wind  
Wind Speed 10 mph ()    
Max Wind Speed 17 mph    
Max Gust Speed -    
Visibility 6.2 miles    
Events      
Averages and records for this station are not official NWS values.
T = Trace of Precipitation, MM = Missing Value Source: Averaged Metar Reports

Daily Weather History Graph

Daily Weather History Graph

Search for Another Location

Airport or City:

Trip Planner

Search our weather history database for the weather conditions in past years. The results will help you decide how hot, cold, wet, or windy it might be!

Date:

Astronomy

Mar. 21, 2013 Rise Set
Actual Time 6:38 AM ChST 6:46 PM ChST
Civil Twilight 6:15 AM ChST 7:08 PM ChST
Nautical Twilight 5:48 AM ChST 7:35 PM ChST
Astronomical Twilight 5:22 AM ChST 8:02 PM ChST
Moon 1:11 PM ChST (3/21) 2:00 AM ChST (3/21)
Length of Visible Light 12h 53m
Length of Day
12h 08m
Waxing Gibbous, 63% of the Moon is Illuminated
Mar 21
Waxing Gibbous
Mar 27
Full
Apr 3
Last Quarter
Apr 10
New
Apr 18
First Quarter

Hourly Weather History & Observations

Time (ChST) Temp. Dew Point Humidity Pressure Visibility Wind Dir Wind Speed Gust Speed Precip Events Conditions
1:00 AM 73.4 °F 68.0 °F 83% 30.01 in 6.2 mi WSW 8.1 mph - N/A   Partly Cloudy
4:00 AM 73.4 °F 68.0 °F 83% 29.95 in 6.2 mi WSW 8.1 mph - N/A   Mostly Cloudy
6:00 AM 73.4 °F 69.8 °F 88% 29.95 in 6.2 mi WSW 8.1 mph - N/A   Mostly Cloudy
6:35 AM 73.4 °F 69.8 °F 88% 29.95 in 6.2 mi West 8.1 mph - N/A   Scattered Clouds
7:00 AM 73.4 °F 68.0 °F 83% 29.95 in 6.2 mi West 8.1 mph - N/A   Mostly Cloudy
8:00 AM 73.4 °F 69.8 °F 88% 29.98 in 6.2 mi West 10.4 mph - N/A   Mostly Cloudy
8:42 AM 75.2 °F 69.8 °F 83% 29.98 in 6.2 mi WSW 12.7 mph - N/A   Scattered Clouds
9:00 AM 75.2 °F 69.8 °F 83% 29.95 in 6.2 mi WSW 12.7 mph - N/A   Scattered Clouds
10:00 AM 77.0 °F 69.8 °F 78% 29.98 in 6.2 mi West 15.0 mph - N/A   Scattered Clouds
11:00 AM 77.0 °F 68.0 °F 74% 29.98 in 6.2 mi West 15.0 mph - N/A   Scattered Clouds
12:00 PM 78.8 °F 69.8 °F 74% 29.95 in 6.2 mi West 16.1 mph - N/A   Scattered Clouds
12:43 PM 78.8 °F 69.8 °F 74% 29.92 in 6.2 mi West 15.0 mph - N/A   Mostly Cloudy
1:00 PM 78.8 °F 69.8 °F 74% 29.92 in 6.2 mi West 16.1 mph - N/A   Mostly Cloudy
2:00 PM 78.8 °F 69.8 °F 74% 29.92 in 6.2 mi WNW 13.8 mph - N/A   Mostly Cloudy
3:00 PM 78.8 °F 68.0 °F 69% 29.92 in 6.2 mi NW 17.3 mph - N/A   Mostly Cloudy
3:07 PM 78.8 °F 68.0 °F 69% 29.89 in 6.2 mi NW 15.0 mph - N/A   Scattered Clouds
4:00 PM 78.8 °F 66.2 °F 65% 29.89 in 6.2 mi NW 12.7 mph - N/A   Partly Cloudy
5:00 PM 77.0 °F 66.2 °F 69% 29.92 in 6.2 mi NW 10.4 mph - N/A   Scattered Clouds
6:00 PM 77.0 °F 68.0 °F 74% 29.92 in 6.2 mi NW 9.2 mph - N/A   Scattered Clouds
7:00 PM 75.2 °F 68.0 °F 78% 29.95 in 6.2 mi NW 6.9 mph - N/A   Partly Cloudy
10:00 PM 75.2 °F 68.0 °F 78% 29.98 in 6.2 mi NW 4.6 mph - N/A   Scattered Clouds